Regional Weather Roundup
Issued by NWS Glasgow, MT

Home | Current Version | Previous Version | Text Only | Print | Product List | Glossary On
Versions: 1 2 3 4 5 6 7 8 9 10 11 12 13 14 15 16 17 18 19 20 21 22 23 24 25 26 27 28 29 30 31 32 33 34 35 36 37 38 39 40 41 42 43 44 45 46 47 48 49 50
000
ASUS45 KGGW 281515
RWRGGW
HOURLY WEATHER ROUNDUP FOR NORTHEAST MONTANA
NATIONAL WEATHER SERVICE GLASGOW MONTANA
800 AM MST SUN DEC 28 2014

NOTE: "FAIR" INDICATES FEW OR NO CLOUDS BELOW 12,000 FEET WITH NO
SIGNIFICANT WEATHER AND/OR OBSTRUCTIONS TO VISISBILITY.

NORTHEAST MONTANA


CITY           SKY/WX    TMP DP  RH WIND       PRES   REMARKS
GLASGOW        CLOUDY    18  14  84 E15       30.00R
PLENTYWOOD       N/A    N/A N/A N/A N13         N/A
WOLF POINT     CLOUDY    17  11  77 NE17      30.05R
JORDAN           N/A     21  18  88 NE9       29.93R
WINNETT          N/A     23  22  96 NE5         N/A
SIDNEY         CLOUDY    19  12  73 NE8       30.07R
GLENDIVE       CLOUDY    19  18  93 NE12      29.98R
MALTA            N/A     19  18  95 NE8         N/A

FORT PECK REPORTS


CITY           SKY/WX    TMP DP  RH WIND       PRES   REMARKS
FORT PECK        N/A     17  16  95 NE14        N/A
THE PINES        N/A     19  18  95 NE12        N/A

SOUTHEAST MONTANA


CITY           SKY/WX    TMP DP  RH WIND       PRES   REMARKS
BILLINGS       CLOUDY    24  13  62 SW12      29.85R
MILES CITY     LGT SNOW  23  20  88 CALM      29.92R FOG
BAKER          CLOUDY    18  13  80 SE6       29.94R
LIVINGSTON     CLOUDY    26  16  65 SW25G37   29.80S

CENTRAL MONTANA


CITY           SKY/WX    TMP DP  RH WIND       PRES   REMARKS
HAVRE          CLOUDY    17  13  84 NE13      30.00R
LEWISTOWN      LGT SNOW  26  23  88 CALM      29.83R FOG
GREAT FALLS    LGT SNOW  22  21  96 N13       29.89R FOG
CUT BANK       FOG       12   9  87 N31       29.99R VSB 1/2 WCI -10
HELENA         LGT SNOW  24  22  91 NW7       29.88R FOG
BUTTE          CLOUDY    21  14  74 CALM      29.83R
BOZEMAN        CLOUDY    22  20  92 N3        29.85R

WESTERN MONTANA


CITY           SKY/WX    TMP DP  RH WIND       PRES   REMARKS
MISSOULA       CLOUDY    24  24 100 SW7       29.93R FOG
KALISPELL      NOT AVBL

NORTH DAKOTA


CITY           SKY/WX    TMP DP  RH WIND       PRES   REMARKS
WILLISTON      CLOUDY    12   6  77 NE9       30.10R
DICKINSON      CLOUDY    18  14  84 E13       29.98R
MINOT          CLOUDY    -6 -11  79 NW7       30.19R
BISMARCK       CLOUDY    10   7  87 E7        30.15R

SOUTHERN SASKATCHEWAN


CITY           SKY/WX    TMP DP  RH WIND       PRES   REMARKS
REGINA         PTCLDY   -18 -22  83 N6        30.22
ESTEVAN        MOCLDY    -6  -9  84 E10       30.18R WCI -23
SWIFT CURRENT  FLURRIES   3   1  92 E14       30.09R WCI -15



USA.gov is the U.S. government's official web portal to all federal, state and local government web resources and services.